Time,TemperatureF,DewpointF,PressureIn,WindDirection,WindDirectionDegrees,WindSpeedMPH,WindSpeedGustMPH,Humidity,HourlyPrecipIn,Conditions,Clouds,dailyrainin,SoftwareType,DateUTC
2013-01-25 00:02:00,17.0,10.0,30.15,SSW,199,3.0,7.0,72,0.00,,,0.00,,2013-01-25 06:02:00,
2013-01-25 00:11:00,17.0,10.0,30.15,SSW,199,3.0,7.0,72,0.00,,,0.00,,2013-01-25 06:11:00,
2013-01-25 00:21:00,17.0,9.0,30.13,SSW,196,9.0,15.0,71,0.00,,,0.00,,2013-01-25 06:21:00,
2013-01-25 00:32:00,17.0,10.0,30.10,South,181,7.0,9.0,72,0.00,,,0.00,,2013-01-25 06:32:00,
2013-01-25 00:41:00,17.0,10.0,30.09,South,174,6.0,9.0,73,0.00,,,0.00,,2013-01-25 06:41:00,
2013-01-25 00:52:00,17.0,10.0,30.09,South,174,6.0,9.0,73,0.00,,,0.00,,2013-01-25 06:52:00,
2013-01-25 01:02:00,17.0,10.0,30.10,SSW,200,5.0,9.0,73,0.00,,,0.00,,2013-01-25 07:02:00,
2013-01-25 01:11:00,17.0,10.0,30.09,South,189,6.0,10.0,73,0.00,,,0.00,,2013-01-25 07:11:00,
2013-01-25 01:21:00,17.0,10.0,30.09,South,189,6.0,10.0,73,0.00,,,0.00,,2013-01-25 07:21:00,
2013-01-25 01:31:00,17.0,10.0,30.10,SSW,210,6.0,9.0,74,0.00,,,0.00,,2013-01-25 07:31:00,
2013-01-25 01:42:00,16.0,9.0,30.11,SSW,207,5.0,8.0,75,0.00,,,0.00,,2013-01-25 07:42:00,
2013-01-25 01:52:00,16.0,9.0,30.11,SSW,207,5.0,8.0,75,0.00,,,0.00,,2013-01-25 07:52:00,
2013-01-25 02:01:00,17.0,10.0,30.11,SSW,203,3.0,7.0,75,0.00,,,0.00,,2013-01-25 08:01:00,
2013-01-25 02:11:00,16.0,10.0,30.10,SSW,206,6.0,8.0,76,0.00,,,0.00,,2013-01-25 08:11:00,
2013-01-25 02:21:00,16.0,10.0,30.10,SSW,206,6.0,8.0,76,0.00,,,0.00,,2013-01-25 08:21:00,
2013-01-25 02:32:00,16.0,10.0,30.09,SSW,196,5.0,8.0,76,0.00,,,0.00,,2013-01-25 08:32:00,
2013-01-25 02:41:00,16.0,10.0,30.09,SSW,196,5.0,8.0,76,0.00,,,0.00,,2013-01-25 08:41:00,
2013-01-25 02:52:00,16.0,10.0,30.09,SSW,213,5.0,7.0,77,0.00,,,0.00,,2013-01-25 08:52:00,
2013-01-25 03:01:00,16.0,10.0,30.09,SSW,198,5.0,7.0,77,0.00,,,0.00,,2013-01-25 09:01:00,
2013-01-25 03:11:00,15.0,10.0,30.08,SSW,203,5.0,7.0,79,0.00,,,0.00,,2013-01-25 09:11:00,
2013-01-25 03:21:00,15.0,10.0,30.08,SSW,203,5.0,7.0,79,0.00,,,0.00,,2013-01-25 09:21:00,
2013-01-25 03:31:00,15.0,10.0,30.08,SSW,205,6.0,8.0,79,0.00,,,0.00,,2013-01-25 09:31:00,
2013-01-25 03:41:00,15.0,10.0,30.08,SSW,205,6.0,8.0,79,0.00,,,0.00,,2013-01-25 09:41:00,
2013-01-25 03:52:00,15.0,10.0,30.07,SSW,195,5.0,7.0,80,0.00,,,0.00,,2013-01-25 09:52:00,
2013-01-25 04:01:00,15.0,10.0,30.07,SSW,209,5.0,7.0,80,0.00,,,0.00,,2013-01-25 10:01:00,
2013-01-25 04:12:00,15.0,10.0,30.06,SSW,209,5.0,6.0,81,0.00,,,0.00,,2013-01-25 10:12:00,
2013-01-25 04:21:00,15.0,10.0,30.06,SSW,209,5.0,6.0,81,0.00,,,0.00,,2013-01-25 10:21:00,
2013-01-25 04:31:00,15.0,10.0,30.06,South,191,3.0,5.0,81,0.00,,,0.00,,2013-01-25 10:31:00,
2013-01-25 04:42:00,15.0,10.0,30.06,South,191,3.0,5.0,81,0.00,,,0.00,,2013-01-25 10:42:00,
2013-01-25 04:52:00,15.0,11.0,30.06,SSW,207,5.0,7.0,82,0.00,,,0.00,,2013-01-25 10:52:00,
2013-01-25 05:02:00,15.0,11.0,30.06,SSW,194,3.0,5.0,82,0.00,,,0.00,,2013-01-25 11:02:00,
2013-01-25 05:11:00,15.0,11.0,30.06,SSW,194,3.0,5.0,82,0.00,,,0.00,,2013-01-25 11:11:00,
2013-01-25 05:22:00,14.0,10.0,30.06,SSW,206,5.0,6.0,83,0.00,,,0.00,,2013-01-25 11:22:00,
2013-01-25 05:32:00,14.0,10.0,30.06,SSW,197,5.0,5.0,83,0.00,,,0.00,,2013-01-25 11:32:00,
2013-01-25 05:42:00,14.0,10.0,30.06,SSW,197,5.0,5.0,83,0.00,,,0.00,,2013-01-25 11:42:00,
2013-01-25 05:52:00,14.0,10.0,30.06,SSW,193,5.0,6.0,83,0.00,,,0.00,,2013-01-25 11:52:00,
2013-01-25 06:02:00,14.0,10.0,30.06,SSW,192,3.0,5.0,84,0.00,,,0.00,,2013-01-25 12:02:00,
2013-01-25 06:11:00,14.0,10.0,30.06,SSW,192,3.0,5.0,84,0.00,,,0.00,,2013-01-25 12:11:00,
2013-01-25 06:22:00,14.0,10.0,30.07,South,178,2.0,3.0,84,0.00,,,0.00,,2013-01-25 12:22:00,
2013-01-25 06:32:00,15.0,11.0,30.07,South,169,2.0,2.0,85,0.00,,,0.00,,2013-01-25 12:32:00,
2013-01-25 06:42:00,15.0,11.0,30.07,South,169,2.0,2.0,85,0.00,,,0.00,,2013-01-25 12:42:00,
2013-01-25 06:53:00,16.0,12.0,30.06,South,179,0.0,0.0,85,0.00,,,0.00,,2013-01-25 12:53:00,
2013-01-25 07:02:00,16.0,12.0,30.06,South,179,0.0,0.0,84,0.00,,,0.00,,2013-01-25 13:02:00,
2013-01-25 07:11:00,16.0,12.0,30.06,South,179,0.0,0.0,84,0.00,,,0.00,,2013-01-25 13:11:00,
2013-01-25 07:22:00,17.0,14.0,30.07,South,179,0.0,0.0,86,0.00,,,0.00,,2013-01-25 13:22:00,
2013-01-25 07:32:00,17.0,14.0,30.08,WSW,244,0.0,0.0,87,0.00,,,0.00,,2013-01-25 13:32:00,
2013-01-25 07:42:00,17.0,14.0,30.08,WSW,244,0.0,0.0,87,0.00,,,0.00,,2013-01-25 13:42:00,
2013-01-25 07:53:00,18.0,15.0,30.09,WSW,241,0.0,0.0,88,0.00,,,0.00,,2013-01-25 13:53:00,
2013-01-25 08:02:00,19.0,16.0,30.09,WSW,241,0.0,0.0,88,0.00,,,0.00,,2013-01-25 14:02:00,
2013-01-25 08:12:00,19.0,16.0,30.09,WSW,241,0.0,0.0,88,0.00,,,0.00,,2013-01-25 14:12:00,
2013-01-25 08:22:00,19.0,17.0,30.10,WSW,241,0.0,0.0,92,0.00,,,0.00,,2013-01-25 14:22:00,
2013-01-25 08:32:00,20.0,18.0,30.10,WSW,241,0.0,0.0,91,0.00,,,0.00,,2013-01-25 14:32:00,
2013-01-25 08:42:00,20.0,18.0,30.10,WSW,241,0.0,0.0,91,0.00,,,0.00,,2013-01-25 14:42:00,
2013-01-25 08:53:00,21.0,19.0,30.11,WSW,241,0.0,0.0,91,0.00,,,0.00,,2013-01-25 14:53:00,
2013-01-25 09:02:00,21.0,19.0,30.11,WSW,241,0.0,0.0,92,0.00,,,0.00,,2013-01-25 15:02:00,
2013-01-25 09:12:00,22.0,20.0,30.11,NNW,328,0.0,0.0,92,0.00,,,0.00,,2013-01-25 15:12:00,
2013-01-25 09:22:00,22.0,20.0,30.11,NNW,328,0.0,0.0,92,0.00,,,0.00,,2013-01-25 15:22:00,
2013-01-25 09:32:00,23.0,21.0,30.13,North,356,0.0,0.0,92,0.00,,,0.00,,2013-01-25 15:32:00,
2013-01-25 09:42:00,23.0,21.0,30.13,North,356,0.0,0.0,92,0.00,,,0.00,,2013-01-25 15:42:00,
2013-01-25 09:53:00,25.0,23.0,30.13,NW,311,5.0,9.0,91,0.00,,,0.00,,2013-01-25 15:53:00,
2013-01-25 10:03:00,26.0,23.0,30.13,NW,311,7.0,8.0,89,0.00,,,0.00,,2013-01-25 16:03:00,
2013-01-25 10:12:00,26.0,23.0,30.13,NW,311,7.0,8.0,89,0.00,,,0.00,,2013-01-25 16:12:00,
2013-01-25 10:22:00,27.0,24.0,30.14,WNW,293,5.0,6.0,87,0.00,,,0.00,,2013-01-25 16:22:00,
2013-01-25 10:32:00,27.0,24.0,30.14,WNW,298,3.0,7.0,87,0.00,,,0.00,,2013-01-25 16:32:00,
2013-01-25 10:42:00,27.0,24.0,30.14,WNW,298,3.0,7.0,87,0.00,,,0.00,,2013-01-25 16:42:00,
2013-01-25 10:53:00,29.0,25.0,30.14,West,281,0.0,0.0,85,0.00,,,0.00,,2013-01-25 16:53:00,
2013-01-25 11:02:00,29.0,25.0,30.14,NW,320,5.0,7.0,85,0.00,,,0.00,,2013-01-25 17:02:00,
2013-01-25 11:12:00,29.0,25.0,30.14,NW,320,5.0,7.0,85,0.00,,,0.00,,2013-01-25 17:12:00,
2013-01-25 11:22:00,30.0,26.0,30.16,WNW,284,6.0,9.0,84,0.00,,,0.00,,2013-01-25 17:22:00,
2013-01-25 11:32:00,30.0,26.0,30.16,NW,314,7.0,9.0,84,0.00,,,0.00,,2013-01-25 17:32:00,
2013-01-25 11:42:00,30.0,26.0,30.16,NW,314,7.0,9.0,84,0.00,,,0.00,,2013-01-25 17:42:00,
2013-01-25 11:53:00,31.0,26.0,30.16,NW,310,9.0,13.0,83,0.00,,,0.00,,2013-01-25 17:53:00,
2013-01-25 12:02:00,32.0,27.0,30.16,WNW,286,9.0,14.0,81,0.00,,,0.00,,2013-01-25 18:02:00,
2013-01-25 12:11:00,32.0,27.0,30.16,WNW,286,9.0,14.0,81,0.00,,,0.00,,2013-01-25 18:11:00,
2013-01-25 12:23:00,33.0,28.0,30.16,WNW,295,12.0,16.0,80,0.00,,,0.00,,2013-01-25 18:23:00,
2013-01-25 12:32:00,34.0,28.0,30.16,WNW,302,9.0,14.0,79,0.00,,,0.00,,2013-01-25 18:32:00,
2013-01-25 12:42:00,34.0,28.0,30.16,WNW,302,9.0,14.0,79,0.00,,,0.00,,2013-01-25 18:42:00,
2013-01-25 12:52:00,34.0,28.0,30.16,WNW,301,12.0,16.0,77,0.00,,,0.00,,2013-01-25 18:52:00,
2013-01-25 13:02:00,34.0,27.0,30.15,WNW,294,17.0,23.0,75,0.00,,,0.00,,2013-01-25 19:02:00,
2013-01-25 13:12:00,34.0,27.0,30.15,WNW,294,17.0,23.0,75,0.00,,,0.00,,2013-01-25 19:12:00,
2013-01-25 13:22:00,34.0,28.0,30.14,NW,313,8.0,16.0,77,0.00,,,0.00,,2013-01-25 19:22:00,
2013-01-25 13:32:00,34.0,27.0,30.14,WNW,302,14.0,18.0,76,0.00,,,0.00,,2013-01-25 19:32:00,
2013-01-25 13:42:00,34.0,27.0,30.14,WNW,302,14.0,18.0,76,0.00,,,0.00,,2013-01-25 19:42:00,
2013-01-25 13:53:00,35.0,28.0,30.14,NW,308,10.0,15.0,75,0.00,,,0.00,,2013-01-25 19:53:00,
2013-01-25 14:02:00,35.0,28.0,30.14,NW,317,12.0,14.0,76,0.00,,,0.00,,2013-01-25 20:02:00,
2013-01-25 14:12:00,35.0,28.0,30.14,NW,317,12.0,14.0,76,0.00,,,0.00,,2013-01-25 20:12:00,
2013-01-25 14:22:00,35.0,28.0,30.14,WNW,293,10.0,15.0,75,0.00,,,0.00,,2013-01-25 20:22:00,
2013-01-25 14:32:00,35.0,28.0,30.14,NW,307,9.0,16.0,76,0.00,,,0.00,,2013-01-25 20:32:00,
2013-01-25 14:42:00,35.0,28.0,30.14,NW,307,9.0,16.0,76,0.00,,,0.00,,2013-01-25 20:42:00,
2013-01-25 14:52:00,34.0,28.0,30.14,NW,321,10.0,14.0,79,0.00,,,0.00,,2013-01-25 20:52:00,
2013-01-25 15:02:00,34.0,28.0,30.14,NW,309,13.0,16.0,79,0.00,,,0.00,,2013-01-25 21:02:00,
2013-01-25 15:11:00,34.0,28.0,30.14,NW,309,13.0,16.0,79,0.00,,,0.00,,2013-01-25 21:11:00,
2013-01-25 15:22:00,33.0,28.0,30.15,NW,321,9.0,13.0,81,0.00,,,0.00,,2013-01-25 21:22:00,
2013-01-25 15:32:00,32.0,27.0,30.15,NW,315,10.0,15.0,80,0.00,,,0.00,,2013-01-25 21:32:00,
2013-01-25 15:42:00,32.0,27.0,30.15,NW,315,10.0,15.0,80,0.00,,,0.00,,2013-01-25 21:42:00,
2013-01-25 15:52:00,32.0,27.0,30.16,NW,314,8.0,12.0,81,0.00,,,0.00,,2013-01-25 21:52:00,
2013-01-25 16:02:00,32.0,27.0,30.16,NW,318,7.0,13.0,82,0.00,,,0.00,,2013-01-25 22:02:00,
2013-01-25 16:11:00,32.0,27.0,30.16,NW,304,12.0,15.0,81,0.00,,,0.00,,2013-01-25 22:11:00,
2013-01-25 16:22:00,32.0,27.0,30.16,NW,304,12.0,15.0,81,0.00,,,0.00,,2013-01-25 22:22:00,
2013-01-25 16:32:00,32.0,27.0,30.17,NW,314,10.0,14.0,81,0.00,,,0.00,,2013-01-25 22:32:00,
2013-01-25 16:42:00,32.0,27.0,30.17,NW,314,10.0,14.0,81,0.00,,,0.00,,2013-01-25 22:42:00,
2013-01-25 16:52:00,31.0,26.0,30.18,NW,323,6.0,7.0,83,0.00,,,0.00,,2013-01-25 22:52:00,
2013-01-25 17:02:00,30.0,26.0,30.19,NNW,330,7.0,9.0,85,0.00,,,0.00,,2013-01-25 23:02:00,
2013-01-25 17:11:00,30.0,26.0,30.19,NNW,330,7.0,9.0,85,0.00,,,0.00,,2013-01-25 23:11:00,
2013-01-25 17:22:00,29.0,26.0,30.19,NNW,337,6.0,7.0,87,0.00,,,0.00,,2013-01-25 23:22:00,
2013-01-25 17:32:00,28.0,25.0,30.19,NNW,331,7.0,8.0,88,0.00,,,0.00,,2013-01-25 23:32:00,
2013-01-25 17:42:00,28.0,25.0,30.19,NNW,331,7.0,8.0,88,0.00,,,0.00,,2013-01-25 23:42:00,
2013-01-25 17:52:00,27.0,24.0,30.19,NNW,331,6.0,10.0,89,0.00,,,0.00,,2013-01-25 23:52:00,
2013-01-25 18:01:00,27.0,24.0,30.19,NNW,341,8.0,12.0,89,0.00,,,0.00,,2013-01-26 00:01:00,
2013-01-25 18:11:00,27.0,24.0,30.19,NNW,341,8.0,12.0,89,0.00,,,0.00,,2013-01-26 00:11:00,
2013-01-25 18:22:00,25.0,22.0,30.19,NW,326,9.0,14.0,89,0.00,,,0.00,,2013-01-26 00:22:00,
2013-01-25 18:32:00,25.0,22.0,30.19,NNW,345,9.0,12.0,90,0.00,,,0.00,,2013-01-26 00:32:00,
2013-01-25 18:42:00,25.0,22.0,30.19,NNW,345,9.0,12.0,90,0.00,,,0.00,,2013-01-26 00:42:00,
2013-01-25 18:53:00,24.0,22.0,30.21,NNW,329,7.0,9.0,90,0.00,,,0.00,,2013-01-26 00:53:00,
2013-01-25 19:01:00,23.0,21.0,30.21,NNW,332,6.0,9.0,91,0.00,,,0.00,,2013-01-26 01:01:00,
2013-01-25 19:11:00,23.0,21.0,30.21,NNW,332,6.0,9.0,91,0.00,,,0.00,,2013-01-26 01:11:00,
2013-01-25 19:22:00,23.0,21.0,30.22,NNW,328,5.0,6.0,91,0.00,,,0.00,,2013-01-26 01:22:00,
2013-01-25 19:32:00,22.0,20.0,30.22,NNW,343,6.0,8.0,92,0.00,,,0.00,,2013-01-26 01:32:00,
2013-01-25 19:42:00,22.0,20.0,30.22,NNW,343,6.0,8.0,92,0.00,,,0.00,,2013-01-26 01:42:00,
2013-01-25 19:52:00,21.0,19.0,30.22,NNW,341,6.0,7.0,92,0.00,,,0.00,,2013-01-26 01:52:00,
2013-01-25 20:01:00,21.0,19.0,30.22,NNW,334,5.0,6.0,92,0.00,,,0.00,,2013-01-26 02:01:00,
2013-01-25 20:11:00,21.0,19.0,30.22,NNW,334,5.0,6.0,92,0.00,,,0.00,,2013-01-26 02:11:00,
2013-01-25 20:22:00,20.0,18.0,30.22,NNW,345,6.0,9.0,92,0.00,,,0.00,,2013-01-26 02:22:00,
2013-01-25 20:32:00,20.0,18.0,30.22,North,355,5.0,6.0,93,0.00,,,0.00,,2013-01-26 02:32:00,
2013-01-25 20:42:00,20.0,18.0,30.22,North,355,5.0,6.0,93,0.00,,,0.00,,2013-01-26 02:42:00,
2013-01-25 20:52:00,19.0,18.0,30.22,North,1,5.0,5.0,95,0.00,,,0.00,,2013-01-26 02:52:00,
2013-01-25 21:01:00,19.0,18.0,30.22,North,352,5.0,6.0,95,0.00,,,0.00,,2013-01-26 03:01:00,
2013-01-25 21:11:00,19.0,18.0,30.22,North,352,5.0,6.0,95,0.00,,,0.00,,2013-01-26 03:11:00,
2013-01-25 21:21:00,18.0,17.0,30.23,NNW,328,3.0,5.0,95,0.00,,,0.00,,2013-01-26 03:21:00,
2013-01-25 21:31:00,18.0,17.0,30.24,NNW,341,3.0,3.0,95,0.00,,,0.00,,2013-01-26 03:31:00,
2013-01-25 21:42:00,18.0,17.0,30.24,NNW,341,3.0,3.0,95,0.00,,,0.00,,2013-01-26 03:42:00,
2013-01-25 21:52:00,17.0,15.0,30.25,North,10,2.0,3.0,91,0.00,,,0.00,,2013-01-26 03:52:00,
2013-01-25 22:01:00,17.0,15.0,30.25,North,5,5.0,6.0,90,0.00,,,0.00,,2013-01-26 04:01:00,
2013-01-25 22:12:00,17.0,15.0,30.25,North,5,5.0,6.0,90,0.00,,,0.00,,2013-01-26 04:12:00,
2013-01-25 22:21:00,16.0,13.0,30.24,NNE,13,3.0,5.0,88,0.00,,,0.00,,2013-01-26 04:21:00,
2013-01-25 22:32:00,16.0,13.0,30.25,NNE,23,1.0,3.0,86,0.00,,,0.00,,2013-01-26 04:32:00,
2013-01-25 22:42:00,16.0,13.0,30.25,NNE,23,1.0,3.0,86,0.00,,,0.00,,2013-01-26 04:42:00,
2013-01-25 22:52:00,15.0,11.0,30.25,NNE,29,1.0,3.0,84,0.00,,,0.00,,2013-01-26 04:52:00,
2013-01-25 23:03:00,14.0,10.0,30.26,NE,35,2.0,3.0,85,0.00,,,0.00,,2013-01-26 05:03:00,
2013-01-25 23:12:00,14.0,10.0,30.26,NE,35,2.0,3.0,85,0.00,,,0.00,,2013-01-26 05:12:00,
2013-01-25 23:23:00,14.0,11.0,30.25,NNE,29,1.0,6.0,86,0.00,,,0.00,,2013-01-26 05:23:00,
2013-01-25 23:33:00,13.0,9.0,30.26,NE,36,5.0,7.0,83,0.00,,,0.00,,2013-01-26 05:33:00,
2013-01-25 23:41:00,13.0,9.0,30.26,NE,36,5.0,7.0,83,0.00,,,0.00,,2013-01-26 05:41:00,
2013-01-25 23:52:00,13.0,9.0,30.26,ESE,102,0.0,0.0,84,0.00,,,0.00,,2013-01-26 05:52:00,